DW0542 Weather Reports


time (UTC)temp
C
wind
direction
speed
KPH
gust
KPH
rain 1hr
cm
rain 24hr
cm
rain mn
cm
humidity
%
barometer
mb
20260905164536 21 326 0.0 12.9 0.00 0.00 0.00 73 1009.4
20260905163035 21 325 0.0 9.7 0.00 0.00 0.00 71 1009.4
20260905161504 21 328 0.0 20.9 0.00 0.00 0.00 72 1009.4
20260905160004 21 331 0.0 12.9 0.00 0.00 0.00 75 1009.4
20260905154502 20 334 0.0 9.7 0.00 0.00 0.00 74 1009.7
20260905153001 21 334 0.0 6.4 0.00 0.00 0.00 75 1009.8
20260905151612 21 339 0.0 12.9 0.00 0.00 0.00 74 1009.7
20260905144559 20 334 0.0 12.9 0.00 0.00 0.00 74 1009.4
20260905143200 21 339 6.4 24.1 0.00 0.00 0.00 74 1009.3
20260905141556 21 332 8.0 17.7 0.00 0.00 0.00 74 1009.4
20260905140056 21 339 8.0 19.3 0.00 0.00 0.00 74 1009.4
20260905134559 20 328 0.0 9.7 0.00 0.00 0.00 76 1009.5
20260905133056 20 324 1.6 16.1 0.00 0.00 0.00 78 1009.4
20260905131552 20 307 8.0 16.1 0.00 0.00 0.00 79 1009.6
20260905130051 19 326 0.0 9.7 0.00 0.00 0.00 80 1009.7
20260905124532 18 324 1.6 9.7 0.00 0.00 0.00 80 1009.6
20260905123018 18 326 0.0 16.1 0.00 0.00 0.00 81 1009.6
20260905121513 18 321 8.0 19.3 0.00 0.00 0.00 82 1009.3
20260905120011 18 320 9.7 14.5 0.00 0.00 0.00 82 1009.2
20260905114510 17 325 8.0 12.9 0.00 0.00 0.00 83 1009.1
20260905113010 17 318 6.4 14.5 0.00 0.00 0.00 83 1009.1
20260905111609 17 331 3.2 9.7 0.00 0.00 0.00 84 1009.0
20260905110008 17 326 0.0 0.0 0.00 0.00 0.00 85 1008.8
20260905104510 17 326 0.0 4.8 0.00 0.00 0.00 85 1008.7
20260905103043 17 299 4.8 9.7 0.00 0.00 0.00 86 1008.6
20260905101549 16 293 0.0 0.0 0.00 0.00 0.00 86 1008.6
20260905100033 16 293 0.0 4.8 0.00 0.00 0.00 86 1008.5
20260905094533 16 293 0.0 0.0 0.00 0.00 0.00 86 1008.5
20260905093032 16 293 0.0 1.6 0.00 0.00 0.00 86 1008.6
20260905091532 15 293 0.0 0.0 0.00 0.00 0.00 86 1008.5
20260905090002 15 293 0.0 0.0 0.00 0.00 0.00 87 1008.5
20260905084602 16 293 0.0 0.0 0.00 0.00 0.00 87 1008.4
20260905083059 15 293 0.0 0.0 0.00 0.00 0.00 87 1008.4
20260905080104 15 293 0.0 0.0 0.00 0.00 0.00 87 1008.4
20260905074555 15 293 0.0 0.0 0.00 0.00 0.00 87 1008.5
20260905073029 15 293 0.0 0.0 0.00 0.00 0.00 87 1008.6
20260905071527 15 293 0.0 0.0 0.00 0.00 0.00 87 1008.7
20260905070025 15 293 0.0 0.0 0.00 0.00 0.00 87 1008.7
20260905064518 15 293 0.0 0.0 0.00 0.00 0.00 87 1008.9
20260905063017 15 293 0.0 0.0 0.00 0.00 0.00 87 1008.9
20260905061515 15 293 0.0 0.0 0.00 0.00 0.00 87 1009.1
20260905060044 16 293 0.0 0.0 0.00 0.00 0.00 87 1009.3
20260905054551 16 293 0.0 0.0 0.00 0.00 0.00 87 1009.3
20260905053041 16 293 0.0 0.0 0.00 0.00 0.00 87 1009.3
20260905051541 16 293 0.0 0.0 0.00 0.00 0.00 87 1009.4
20260905050036 16 293 0.0 0.0 0.00 0.00 0.00 86 1009.5
20260905044535 16 293 0.0 0.0 0.00 0.00 0.00 86 1009.4
20260905043032 16 293 0.0 0.0 0.00 0.00 0.00 86 1009.2
20260905041531 17 293 0.0 0.0 0.00 0.00 0.00 86 1009.2
20260905040033 17 293 0.0 0.0 0.00 0.00 0.00 86 1009.2
20260905034531 17 293 0.0 0.0 0.00 0.00 0.00 86 1009.3
20260905033031 17 293 0.0 0.0 0.00 0.00 0.00 86 1009.2
20260905031529 17 293 0.0 0.0 0.00 0.00 0.00 86 1009.1
20260905030022 17 293 0.0 0.0 0.00 0.00 0.00 85 1009.2
20260905024520 17 293 0.0 0.0 0.00 0.00 0.00 85 1009.1
20260905023020 17 293 0.0 0.0 0.00 0.00 0.00 85 1009.1
20260905021517 18 293 0.0 0.0 0.00 0.00 0.00 85 1009.1
20260905020018 18 293 0.0 0.0 0.00 0.00 0.00 84 1009.3
20260905014511 18 293 0.0 0.0 0.00 0.00 0.00 84 1009.5
20260905013006 18 293 0.0 0.0 0.00 0.00 0.00 84 1009.7
20260905011505 19 293 0.0 0.0 0.00 0.00 0.00 83 1009.7
20260905010059 19 293 0.0 0.0 0.00 0.00 0.00 83 1009.6
20260905004623 19 293 0.0 0.0 0.00 0.00 0.00 82 1009.6
20260905003056 20 293 0.0 0.0 0.00 0.00 0.00 81 1009.4
20260905001551 20 293 0.0 0.0 0.00 0.00 0.00 79 1009.3
20260905000045 21 293 0.0 0.0 0.00 0.00 0.00 76 1009.1
20260904234541 21 293 0.0 0.0 0.00 0.00 0.00 74 1009.0
20260904233037 23 293 0.0 0.0 0.00 0.00 0.00 69 1009.0
20260904231536 23 293 0.0 0.0 0.00 0.00 0.00 65 1008.9
20260904230043 24 293 0.0 0.0 0.00 0.00 0.00 64 1008.8
20260904224528 25 277 0.0 4.8 0.00 0.00 0.00 62 1008.7
20260904223023 25 296 0.0 4.8 0.00 0.00 0.00 61 1008.7
20260904221524 25 302 6.4 16.1 0.00 0.00 0.00 59 1008.5
20260904220018 25 305 3.2 17.7 0.00 0.00 0.00 62 1008.5
20260904214521 25 303 6.4 20.9 0.00 0.00 0.00 60 1008.5
20260904213017 25 314 11.3 19.3 0.00 0.00 0.00 60 1008.5
20260904211515 25 299 12.9 22.5 0.00 0.00 0.00 56 1008.6
20260904210015 25 284 4.8 17.7 0.00 0.00 0.00 60 1008.6
20260904204513 25 282 9.7 22.5 0.00 0.00 0.00 58 1008.4
20260904203007 25 249 8.0 27.4 0.00 0.00 0.00 58 1008.5
20260904203004 25 249 9.7 27.4 0.00 0.00 0.00 58 1008.5
20260904201504 25 315 12.9 20.9 0.00 0.00 0.00 59 1008.7
20260904200003 25 265 3.2 19.3 0.00 0.00 0.00 59 1008.7
20260904194608 25 272 0.0 16.1 0.00 0.00 0.00 62 1008.7
20260904193100 25 296 11.3 17.7 0.00 0.00 0.00 62 1008.6
20260904191558 25 295 8.0 22.5 0.00 0.00 0.00 62 1008.6
20260904190058 25 295 9.7 19.3 0.00 0.00 0.00 62 1008.7
20260904184631 25 321 9.7 20.9 0.00 0.00 0.00 59 1008.8
20260904183027 25 328 11.3 22.5 0.00 0.00 0.00 58 1008.9
20260904181523 25 297 6.4 22.5 0.00 0.00 0.00 60 1008.8
20260904180022 25 317 12.9 24.1 0.00 0.00 0.00 59 1008.7
20260904174519 25 328 3.2 19.3 0.00 0.00 0.00 63 1008.8
20260904173021 25 296 8.0 20.9 0.00 0.00 0.00 65 1009.0
20260904171551 24 290 11.3 22.5 0.00 0.00 0.00 66 1008.9
20260904170052 24 317 8.0 17.7 0.00 0.00 0.00 68 1009.1